Tracking 31027 objects as of 19-Jul-2025
HD Live streaming from Space Station
objects crossing your sky now

ORBCOMM FM 16 DEB

Track ORBCOMM FM 16 DEB now!
10-day predictions


NORAD ID: 44023
Int'l Code: 1998-046S
Perigee: 779.5 km
Apogee: 789.0 km
Inclination: 45.0 °
Period: 100.4 minutes
Semi major axis: 7155 km
RCS: Unknown
Launch date: August 2, 1998
Source: ORBCOMM (ORB)
Launch site: Pegasus launched from Eastern Range Air Space (ERAS)

Note: This is SATELLITE DEBRIS
Your satellite tracking list
COSMOS 2251 DEB
Track 1 satellite(s)




NASA's NSSDC Master Catalog

Two Line Element Set (TLE):
1 44023U 98046S   25199.05318613  .00000369  00000-0  17955-3 0  9991
2 44023  45.0050  79.8985 0006647 239.0870 120.9324 14.34376512341484
Source of the keplerian elements: AFSPC